2019-038H (44393 NORAD) Tracking and Keplerian Element Data

This shows tracking and keplerian element data for the satellite.

Feedback or suggestion? Click here.




ElementValue
Catalog44393
Name2019-038H
Epoch Orbit429
Epoch Day214.88824355
Epoch Year2019
RAAN176.2992
Inclination97.4918
Eccentricity0.002304
Argument of Perigee148.3324
Mean Anonmoly211.9298
Mean Motion15.12090227
Decay Rate3.35E-06
L11 44393U 19038H 19214.88824355 .00000335 00000-0 23130-4 0 9998
L22 44393 97.4918 176.2992 0023040 148.3324 211.9298 15.12090227 4299

Live tracking and technical data element details for 2019-038H (NORAD 44393). 2019-038H can be tracked NOW for your location showing map with azimuth and elevation plus other details from your city location.

Track the satellite on the map from your city or location and see movement details for azimuth, elevation, latitude, longitude, range, height, and movement on the map or in text.







IsCatalogInMostPopularTable: catalog: 44393, numindb: 22
Update: records affected: 1



GetName: 44393 2019-038H

Hit Count: updated at: Thu, 05 Dec 2019 16:45:27 GMT